Location: Malvern Link
(52.1333°N, 2.3000°W)
Time: 14:36:49
(UTC+00:00)

DIWATA 2B (PO-101) - Pass Details

Date: 29 June 2022
Orbit: 583 x 599 km, 98.0° (Epoch: 19 August)

Event Time Altitude Azimuth Distance (km) Brightness Sun altitude
Exits shadow 02:58:07 - 214° (SW) 2,097 ? -6.4°
Reaches altitude 10° 02:58:38 10° 218° (SW) 1,938 ? -6.4°
Maximum altitude 03:01:51 21° 268° (W) 1,362 ? -6.1°
Drops below altitude 10° 03:05:06 10° 318° (NW) 1,953 ? -5.8°
Sets 03:07:44 0° 335° (NNW) 2,861 ? -5.5°
